Weather Roundup
Issued by NWS Corpus Christi, TX

Home | Current Version | Previous Version | Text Only | Print | Product List | Glossary On
Versions: 1 2 3 4 5 6 7 8 9 10 11 12 13 14 15 16 17 18 19 20 21 22 23 24 25 26 27 28 29 30 31 32 33 34 35 36 37 38 39 40 41 42 43 44 45 46 47 48 49 50
000
ASUS44 KCRP 230210
HRRCRP

SOUTH TEXAS REGIONAL WEATHER ROUNDUP
NATIONAL WEATHER SERVICE CORPUS CHRISTI TX
900 PM CDT FRI MAY 22 2015


TXZ229>244-230300-
...CORPUS CHRISTI AREA OBSERVATIONS...

CITY           SKY/WX    TMP DP  RH WIND       PRES   REMARKS
CORPUS CHRISTI CLOUDY    80  75  84 SE8       30.00R
NAS CORPUS CHR CLOUDY    80  76  87 SE13      30.01R
ROCKPORT       CLOUDY    81  74  79 SE13      30.00F
KINGSVILLE NAS CLOUDY    80  78  94 SE8       29.98S
ALICE          CLOUDY    80  75  84 SE14      29.98S
FALFURRIAS     MOCLDY    80  74  82 E6        29.97R
$$

...VICTORIA AREA OBSERVATIONS...

CITY           SKY/WX    TMP DP  RH WIND       PRES   REMARKS
VICTORIA       CLOUDY    76  75  97 E8        30.04R
BEEVILLE       FAIR      78  78 100 E10       30.00S
PLEASANTON     CLOUDY    77  72  82 E8        30.01R
SAN ANTONIO    CLOUDY    78  73  84 SE12      30.04R
$$

...LAREDO AREA OBSERVATIONS...

CITY           SKY/WX    TMP DP  RH WIND       PRES   REMARKS
LAREDO         MOCLDY    82  74  77 E6        29.97R
COTULLA        MOCLDY    81  74  79 SE16      29.98R
DEL RIO        CLOUDY    80  70  71 SE9       29.95R
MCALLEN        MOCLDY    83  74  74 SE12      29.97R
HEBBRONVILLE     N/A     80  74  81 SE8       29.99S
$$

...OTHER TEXAS OBSERVATIONS...

CITY           SKY/WX    TMP DP  RH WIND       PRES   REMARKS
BROWNSVILLE    MOCLDY    80  75  84 SE12      29.97S
HOUSTON        MOCLDY    74  69  85 E8        30.10R
COL. STATION   CLOUDY    75  68  78 E10       30.08R
AUSTIN         CLOUDY    76  72  87 SE7       30.05R
WACO           CLOUDY    73  68  84 SE6       30.07R
FORT WORTH     LGT RAIN  67  65  93 E3        30.08S
WICHITA FALLS  CLOUDY    59  58  96 E12       30.10R FOG
LUBBOCK        FOG       60  60 100 SE12      30.05R VSB 1/2
EL PASO        CLOUDY    86   6   5 SW17G25   29.85R
$$

...MARINE OBSERVATIONS...

STATION/POSITION TIME  SKY/WX   TEMP    WIND        PRES    VSBY  WAVE   SWELL
                                AIR SEA DIR/SP/G                  HT/PER HT/PER
                 (UTC)          (F)     (DEG/KT/KT) (MB)    (MI)  (FT/S) (FT/S)
PORT ARANSAS     0200            81 82  120/ 15/ 16 1016.7R
BUOY 90 E PORT A 0150            80 80  140/ 12/ 14 1017.7R         4/ 6   2/ 6
BUOY 45 SE BAFFI 0150            81 81  130/ 12/ 16 1015.5R         4/ 6   2/ 6
BUOY 200 E PT IS 0150            81 82  110/ 12/ 14 1017.3R         2/ 5   2/11
BUOY 15 E GALVES 0150            79 80  100/ 17/ 19 1018.1S         3/ 4
$$


USA.gov is the U.S. government's official web portal to all federal, state and local government web resources and services.